Regional Weather Roundup
Issued by NWS

Home | Current Version | Previous Version | Text Only | Print | Product List | Glossary Off
Versions: 1 2 3 4 5 6 7 8 9 10 11 12 13 14 15 16 17 18 19 20 21 22 23 24 25 26 27 28 29 30 31 32 33 34 35 36 37 38 39 40 41 42 43 44 45 46 47 48 49 50

000
ASUS43 KOAX 162010
RWRNE

WEATHER ROUNDUP FOR NEBRASKA
NATIONAL WEATHER SERVICE OMAHA NE
200 PM CST MON JAN 16 2017

NOTES: SATELLITE DATA IS BEING USED TO AUGMENT CLOUD COVER ABOVE
       12000 FEET.
       "FAIR" INDICATES FEW OR NO CLOUDS BELOW 12,000 FEET WITH NO
       SIGNIFICANT WEATHER AND/OR OBSTRUCTIONS TO VISIBILITY.

  * THESE STATIONS DO NOT REPORT WEATHER SUCH AS RAIN...SNOW OR FOG.

NEZ001>004-019>022-054>056-162100-
NEBRASKA PANHANDLE

CITY           SKY/WX    TMP DP  RH WIND       PRES   REMARKS
SCOTTSBLUFF    CLOUDY    40  17  39 NW12      30.06F WCI  33
ALLIANCE       CLOUDY    37  15  40 N17       30.02F WCI  27
CHADRON        SUNNY     32  18  56 NW14      30.08F WCI  22
KIMBALL        CLOUDY    35  21  56 NW15      30.04F WCI  26
SIDNEY         CLOUDY    35  21  56 N21G28    30.02F WCI  24
$$

NEZ057>060-069>072-079>082-162100-
SOUTHWEST NEBRASKA

CITY           SKY/WX    TMP DP  RH WIND       PRES   REMARKS
NORTH PLATTE   CLOUDY    35  31  85 NW9       29.97S WCI  28
IMPERIAL       CLOUDY    35  28  75 N20       29.97S WCI  24
LEXINGTON      CLOUDY    34  32  93 N16       29.93S WCI  23
MCCOOK         MIX PCPN  35  34  96 N12       29.94S FOG     WCI  27
OGALLALA       CLOUDY    37  31  80 N10       30.00S WCI  29
$$

NEZ005>010-023>029-035>040-094-162100-
NORTH CENTRAL NEBRASKA

CITY           SKY/WX    TMP DP  RH WIND       PRES   REMARKS
VALENTINE      CLOUDY    35  13  40 NW15      30.02F WCI  25
AINSWORTH      CLOUDY    34  27  74 N12       29.99F WCI  26
BROKEN BOW     LGT SNOW  32  30  92 N21       29.94F FOG     WCI  20
O`NEILL        CLOUDY    30  27  90 N8        29.99F WCI  22
ORD            FRZ RAIN  32  29  88 N14G25    29.94F FOG     WCI  22
THEDFORD       CLOUDY    36  30  79 NW15      29.98F WCI  26
$$

NEZ041-046>049-061>064-073>077-083>087-162100-
SOUTH CENTRAL NEBRASKA

CITY           SKY/WX    TMP DP  RH WIND       PRES   REMARKS
GRAND ISLAND   FRZ RAIN N/A N/A N/A N7        29.91S FOG
AURORA         MIX PCPN  32  32  99 N3        29.89S
HASTINGS       MIX PCPN  32  30  92 N15       29.90S FOG     WCI  22
HEBRON         CLOUDY    32  32  99 N3        29.86F FOG
HOLDREGE       DRIZZLE   32  31  97 N5        29.90S WCI  28
KEARNEY *      CLOUDY    32  28  86 N6        29.91S WCI  26
YORK           LGT RAIN  32  32 100 CALM      29.89S
$$

NEZ011>018-030>034-042>045-162100-
NORTHEAST NEBRASKA

CITY           SKY/WX    TMP DP  RH WIND       PRES   REMARKS
NORFOLK        FRZ RAIN  31  29  92 N14       29.92F FOG     WCI  21
ALBION         MIX PCPN  32  31  94 N7        29.92F WCI  26
BLAIR          CLOUDY    33  32  96 N6        29.88F FOG     WCI  27
FREMONT        MIX PCPN  32  32 100 N3        29.91S
TEKAMAH        LGT RAIN  33  31  92 N16       29.91F FOG     WCI  23
WAYNE          MIX PCPN  32  31  98 N7        29.94F WCI  26
$$

NEZ050>053-065>068-078-088>093-162100-
SOUTHEAST NEBRASKA

CITY           SKY/WX    TMP DP  RH WIND       PRES   REMARKS
LINCOLN        RAIN      33  32  96 N13       29.89S FOG     WCI  24
OMAHA EPPLEY   LGT RAIN  34  31  88 N8        29.90F FOG     WCI  27
BEATRICE       CLOUDY    33  33 100 N5        29.85S FOG     WCI  28
FALLS CITY     FOG       36  36 100 NE6       29.82F VSB 1/4 WCI  31
NEBRASKA CITY  FOG       33  33 100 NE5       29.85S VSB 1/2 WCI  28
PLATTSMOUTH    CLOUDY    33  31  93 CALM      29.87F FOG
$$

NEZ044-045-051>053-067-162100-
OMAHA AREA

CITY           SKY/WX    TMP DP  RH WIND       PRES   REMARKS
OMAHA EPPLEY   LGT RAIN  34  31  88 N8        29.90F FOG     WCI  27
BLAIR          CLOUDY    33  32  96 N6        29.88F FOG     WCI  27
FREMONT        MIX PCPN  32  32 100 N3        29.91S
MILLARD        DRIZZLE   36  34  94 CALM      29.89F
OFFUTT AFB     LGT RAIN  34  34 100 N7        29.88F WCI  28
PLATTSMOUTH    CLOUDY    33  31  93 CALM      29.87F FOG
WAHOO          MIX PCPN  32  32  99 N12       29.89F WCI  23
$$



USA.gov is the U.S. government's official web portal to all federal, state and local government web resources and services.